GW2223 Weather Reports


time (UTC)temp
C
wind
direction
speed
KPH
gust
KPH
rain 1hr
cm
rain 24hr
cm
rain mn
cm
humidity
%
barometer
mb
20260505084125 12 67 12.9 24.1 0.00 0.00 0.00 49 1008.5
20260505083631 13 320 9.7 24.1 0.00 0.00 0.00 48 1008.5
20260505083137 13 59 8.0 24.1 0.00 0.00 0.00 49 1008.6
20260505082622 13 22 11.3 30.6 0.00 0.00 0.00 47 1009.0
20260505082148 13 340 12.9 30.6 0.00 0.00 0.00 46 1008.8
20260505081634 13 28 8.0 29.0 0.00 0.00 0.00 46 1008.8
20260505081139 13 73 8.0 27.4 0.00 0.00 0.00 46 1008.8
20260505080636 13 329 9.7 24.1 0.00 0.00 0.00 47 1008.9
20260505080152 13 17 8.0 16.1 0.00 0.00 0.00 48 1009.0
20260505075635 13 10 6.4 19.3 0.00 0.00 0.00 48 1008.8
20260505075140 13 44 6.4 20.9 0.00 0.00 0.00 48 1008.7
20260505074627 13 24 4.8 29.0 0.00 0.00 0.00 47 1008.4
20260505074136 13 27 9.7 29.0 0.00 0.00 0.00 47 1008.3
20260505073642 13 23 9.7 29.0 0.00 0.00 0.00 46 1008.2
20260505073127 13 92 16.1 38.6 0.00 0.00 0.00 47 1008.1
20260505072632 13 30 12.9 38.6 0.00 0.00 0.00 47 1008.0
20260505072138 13 328 14.5 30.6 0.00 0.00 0.00 48 1007.9
20260505071625 13 24 12.9 30.6 0.00 0.00 0.00 50 1007.7
20260505071151 13 25 11.3 25.7 0.00 0.00 0.00 50 1007.7
20260505070648 13 113 12.9 27.4 0.00 0.00 0.00 51 1007.8
20260505070121 14 43 12.9 27.4 0.00 0.00 0.00 50 1007.9
20260505065628 14 29 12.9 27.4 0.00 0.00 0.00 51 1007.9
20260505065132 14 315 11.3 27.4 0.00 0.00 0.00 50 1008.0
20260505064658 14 5 8.0 19.3 0.00 0.00 0.00 51 1007.9
20260505064124 14 355 11.3 22.5 0.00 0.00 0.00 49 1007.8
20260505063629 15 355 11.3 24.1 0.00 0.00 0.00 49 1007.8
20260505063154 15 18 11.3 27.4 0.00 0.00 0.00 48 1007.7
20260505062622 15 42 11.3 27.4 0.00 0.00 0.00 48 1007.8
20260505062125 15 355 11.3 27.4 0.00 0.00 0.00 47 1007.9
20260505061632 15 23 14.5 27.4 0.00 0.00 0.00 47 1007.9
20260505061137 15 48 9.7 22.5 0.00 0.00 0.00 46 1008.0
20260505060633 15 33 9.7 32.2 0.00 0.00 0.00 46 1008.0
20260505060128 15 84 14.5 32.2 0.00 0.00 0.00 45 1007.8
20260505055634 16 92 8.0 25.7 0.00 0.00 0.00 46 1007.7
20260505055140 16 53 12.9 25.7 0.00 0.00 0.00 46 1007.7
20260505054625 16 78 9.7 24.1 0.00 0.00 0.00 45 1007.6
20260505054152 16 46 8.0 33.8 0.00 0.00 0.00 44 1007.7
20260505053637 16 49 9.7 33.8 0.00 0.00 0.00 44 1007.7
20260505053144 16 69 9.7 32.2 0.00 0.00 0.00 43 1007.6
20260505052649 16 66 14.5 35.4 0.00 0.00 0.00 43 1007.5
20260505052134 17 19 17.7 35.4 0.00 0.00 0.00 42 1007.1
20260505051622 17 355 19.3 32.2 0.00 0.00 0.00 42 1006.9
20260505051127 17 29 12.9 30.6 0.00 0.00 0.00 42 1006.9
20260505050623 17 52 12.9 30.6 0.00 0.00 0.00 41 1006.5
20260505050139 17 22 11.3 29.0 0.00 0.00 0.00 41 1006.5
20260505041638 19 90 11.3 30.6 0.00 0.00 0.00 39 1004.6
20260505041144 19 57 16.1 33.8 0.00 0.00 0.00 39 1005.2
20260505040638 19 281 14.5 33.8 0.00 0.00 0.00 39 1005.4
20260505040134 20 21 14.5 30.6 0.00 0.00 0.00 39 1005.6
20260505035622 20 294 9.7 30.6 0.00 0.00 0.00 39 1005.7
20260505035128 20 42 12.9 30.6 0.00 0.00 0.00 39 1005.6
20260505034632 20 46 12.9 30.6 0.00 0.00 0.00 39 1005.4
20260505034139 20 22 9.7 17.7 0.00 0.00 0.00 40 1005.3
20260505033645 20 55 6.4 16.1 0.00 0.00 0.00 40 1005.3
20260505033128 20 35 6.4 20.9 0.00 0.00 0.00 40 1005.1
20260505032634 20 292 8.0 20.9 0.00 0.00 0.00 40 1005.0
20260505032140 20 45 6.4 20.9 0.00 0.00 0.00 40 1005.0
20260505031626 20 360 9.7 22.5 0.00 0.00 0.00 40 1004.8
20260505031133 21 17 9.7 22.5 0.00 0.00 0.00 41 1004.5
20260505030630 21 338 9.7 27.4 0.00 0.00 0.00 41 1004.2
20260505030126 21 355 6.4 27.4 0.00 0.00 0.00 40 1004.1
20260505025631 21 350 9.7 24.1 0.00 0.00 0.00 40 1003.9
20260505025140 21 25 9.7 24.1 0.00 0.00 0.00 40 1003.8
20260505024627 22 269 8.0 27.4 0.00 0.00 0.00 40 1003.4
20260505024132 22 50 11.3 27.4 0.00 0.00 0.00 39 1003.3
20260505023638 22 322 8.0 20.9 0.00 0.00 0.00 40 1003.2
20260505023124 22 41 8.0 24.1 0.00 0.00 0.00 40 1003.0
20260505022631 22 36 8.0 24.1 0.00 0.00 0.00 40 1002.9
20260505022135 22 34 12.9 22.5 0.00 0.00 0.00 41 1002.9
20260505021702 22 10 9.7 24.1 0.00 0.00 0.00 44 1002.7
20260505021126 22 19 8.0 24.1 0.00 0.00 0.00 46 1002.7
20260505020621 22 292 6.4 16.1 0.00 0.00 0.00 47 1002.5
20260505020137 22 17 6.4 16.1 0.00 0.00 0.00 51 1002.5
20260505015624 22 58 4.8 14.5 0.00 0.00 0.00 58 1002.4
20260505015133 21 294 1.6 4.8 0.00 0.00 0.00 61 1002.4
20260505014640 22 211 0.0 3.2 0.00 0.00 0.00 60 1001.9
20260505014147 22 211 1.6 3.2 0.00 0.00 0.00 59 1001.8
20260505013632 22 211 0.0 3.2 0.00 0.00 0.00 59 1001.8
20260505013137 22 211 1.6 3.2 0.00 0.00 0.00 58 1001.8
20260505012643 22 211 1.6 3.2 0.00 0.00 0.00 58 1001.7
20260505012126 22 211 1.6 1.6 0.00 0.00 0.00 58 1001.8
20260505011653 22 211 0.0 1.6 0.00 0.00 0.00 58 1001.6
20260505011137 23 211 0.0 3.2 0.00 0.00 0.00 57 1001.5
20260505010633 23 211 1.6 3.2 0.00 0.00 0.00 56 1001.5
20260505010129 23 198 1.6 3.2 0.00 0.00 0.00 56 1001.4
20260505005655 23 198 1.6 1.6 0.00 0.00 0.00 56 1001.5
20260505005140 23 198 0.0 1.6 0.00 0.00 0.00 54 1001.4
20260505004626 23 198 0.0 1.6 0.00 0.00 0.00 54 1001.3
20260505004135 23 198 0.0 1.6 0.00 0.00 0.00 53 1001.3
20260505003621 23 198 0.0 1.6 0.00 0.00 0.00 52 1001.2
20260505003126 24 188 0.0 1.6 0.00 0.00 0.00 51 1001.3
20260505002653 24 188 0.0 1.6 0.00 0.00 0.00 50 1001.4
20260505002139 24 201 0.0 1.6 0.00 0.00 0.00 51 1001.4
20260505001626 25 201 0.0 1.6 0.00 0.00 0.00 50 1001.4
20260505001132 25 202 0.0 1.6 0.00 0.00 0.00 51 1001.4
20260505000628 25 206 0.0 1.6 0.00 0.00 0.00 50 1001.4
20260505000125 25 206 0.0 1.6 0.00 0.00 0.00 50 1001.4
20260504235632 25 206 0.0 3.2 0.00 0.00 0.00 50 1001.5
20260504235158 25 206 1.6 3.2 0.00 0.00 0.00 51 1001.5
20260504234623 25 205 1.6 3.2 0.00 0.00 0.00 49 1001.5
20260504234133 25 187 1.6 3.2 0.00 0.00 0.00 49 1001.5
20260504233640 25 134 1.6 3.2 0.00 0.00 0.00 49 1001.5
20260504233126 25 232 0.0 4.8 0.00 0.00 0.00 49 1001.5
20260504232632 26 240 1.6 4.8 0.00 0.00 0.00 46 1001.6
20260504232138 26 158 1.6 4.8 0.00 0.00 0.00 49 1001.5
20260504231623 26 210 1.6 4.8 0.00 0.00 0.00 49 1001.4
20260504231150 26 211 1.6 4.8 0.00 0.00 0.00 47 1001.4
20260504230626 26 268 1.6 8.0 0.00 0.00 0.00 46 1001.4
20260504230123 26 150 4.8 8.0 0.00 0.00 0.00 42 1001.4
20260504225629 26 243 1.6 4.8 0.00 0.00 0.00 42 1001.5
20260504225157 27 234 1.6 6.4 0.00 0.00 0.00 40 1001.4
20260504224638 27 114 1.6 16.1 0.00 0.00 0.00 41 1001.4
20260504224144 27 49 3.2 16.1 0.00 0.00 0.00 37 1001.3
20260504223632 27 120 3.2 6.4 0.00 0.00 0.00 38 1001.2
20260504223138 27 126 3.2 6.4 0.00 0.00 0.00 37 1001.2
20260504222634 27 126 3.2 4.8 0.00 0.00 0.00 42 1001.1
20260504222201 27 144 3.2 9.7 0.00 0.00 0.00 37 1001.2
20260504221626 27 132 1.6 9.7 0.00 0.00 0.00 41 1001.3
20260504221132 26 164 1.6 4.8 0.00 0.00 0.00 41 1001.1
20260504220649 26 153 1.6 4.8 0.00 0.00 0.00 42 1001.3
20260504220133 26 134 1.6 4.8 0.00 0.00 0.00 47 1001.2
20260504215641 26 248 0.0 3.2 0.00 0.00 0.00 45 1001.3
20260504215126 26 266 0.0 4.8 0.00 0.00 0.00 44 1001.3
20260504214633 27 244 3.2 6.4 0.00 0.00 0.00 43 1001.3
20260504214140 27 139 3.2 11.3 0.00 0.00 0.00 41 1001.4
20260504213620 27 129 3.2 11.3 0.00 0.00 0.00 41 1001.5
20260504213127 27 132 1.6 6.4 0.00 0.00 0.00 38 1001.5
20260504212633 27 135 1.6 8.0 0.00 0.00 0.00 38 1001.6
20260504212159 27 123 3.2 8.0 0.00 0.00 0.00 43 1001.5
20260504211624 28 122 1.6 8.0 0.00 0.00 0.00 38 1001.5
20260504211132 28 109 1.6 6.4 0.00 0.00 0.00 38 1001.5
20260504210627 27 56 1.6 3.2 0.00 0.00 0.00 37 1001.5
20260504210144 27 322 1.6 4.8 0.00 0.00 0.00 39 1001.7
20260504205627 28 51 3.2 8.0 0.00 0.00 0.00 39 1001.8
20260504205133 28 347 3.2 11.3 0.00 0.00 0.00 37 1001.8
20260504204700 28 229 1.6 11.3 0.00 0.00 0.00 37 1001.8
20260504204123 27 180 3.2 4.8 0.00 0.00 0.00 36 1001.9
20260504203629 27 119 1.6 6.4 0.00 0.00 0.00 37 1002.1
20260504203136 28 78 4.8 6.4 0.00 0.00 0.00 36 1001.9
20260504202641 27 69 1.6 6.4 0.00 0.00 0.00 38 1002.1
20260504202131 28 40 4.8 9.7 0.00 0.00 0.00 35 1002.1
20260504201636 28 128 3.2 9.7 0.00 0.00 0.00 34 1002.2
20260504201122 28 63 1.6 4.8 0.00 0.00 0.00 36 1002.2
20260504200638 28 296 1.6 4.8 0.00 0.00 0.00 40 1002.2
20260504200134 27 156 0.0 4.8 0.00 0.00 0.00 38 1002.2
20260504195621 28 19 1.6 6.4 0.00 0.00 0.00 42 1002.2
20260504195128 28 17 3.2 8.0 0.00 0.00 0.00 34 1002.4
20260504194634 28 51 1.6 8.0 0.00 0.00 0.00 35 1002.3
20260504194139 28 19 3.2 8.0 0.00 0.00 0.00 33 1002.4
20260504193626 28 313 1.6 6.4 0.00 0.00 0.00 32 1002.5
20260504193132 28 51 1.6 8.0 0.00 0.00 0.00 35 1002.4
20260504192622 27 355 1.6 8.0 0.00 0.00 0.00 35 1002.5
20260504192129 27 13 1.6 4.8 0.00 0.00 0.00 33 1002.4
20260504191634 27 273 1.6 4.8 0.00 0.00 0.00 39 1002.5
20260504191121 27 266 0.0 3.2 0.00 0.00 0.00 41 1002.5
20260504190635 28 145 0.0 6.4 0.00 0.00 0.00 37 1002.4
20260504190152 28 279 1.6 6.4 0.00 0.00 0.00 30 1002.6
20260504185637 28 310 3.2 9.7 0.00 0.00 0.00 34 1002.6
20260504185124 28 313 4.8 9.7 0.00 0.00 0.00 33 1002.5
20260504184629 28 47 4.8 6.4 0.00 0.00 0.00 32 1002.6
20260504184137 28 355 3.2 9.7 0.00 0.00 0.00 30 1002.6
20260504183621 29 54 3.2 11.3 0.00 0.00 0.00 33 1002.7
20260504183127 29 336 4.8 11.3 0.00 0.00 0.00 33 1002.6
20260504182636 28 95 3.2 11.3 0.00 0.00 0.00 37 1002.5
20260504182123 28 59 1.6 12.9 0.00 0.00 0.00 35 1002.5
20260504181648 28 316 1.6 12.9 0.00 0.00 0.00 36 1002.7
20260504181135 28 78 3.2 8.0 0.00 0.00 0.00 33 1002.6
20260504180631 28 263 3.2 6.4 0.00 0.00 0.00 34 1002.6
20260504180126 27 305 3.2 6.4 0.00 0.00 0.00 42 1002.5
20260504175631 28 49 3.2 6.4 0.00 0.00 0.00 38 1002.6
20260504175135 28 277 3.2 6.4 0.00 0.00 0.00 43 1002.7
20260504174621 27 235 1.6 12.9 0.00 0.00 0.00 43 1002.7
20260504174127 27 340 4.8 12.9 0.00 0.00 0.00 39 1002.8
20260504173633 27 38 4.8 9.7 0.00 0.00 0.00 42 1002.8
20260504173122 27 69 3.2 4.8 0.00 0.00 0.00 44 1002.8
20260504172627 26 254 1.6 8.0 0.00 0.00 0.00 44 1002.7
20260504172133 26 254 1.6 6.4 0.00 0.00 0.00 47 1002.7
20260504171638 26 228 3.2 6.4 0.00 0.00 0.00 46 1003.0
20260504171124 26 271 1.6 6.4 0.00 0.00 0.00 47 1003.0
20260504170639 26 281 3.2 6.4 0.00 0.00 0.00 46 1003.1
20260504170134 26 218 1.6 6.4 0.00 0.00 0.00 47 1003.1
20260504160124 22 280 1.6 4.8 0.00 0.00 0.00 52 1003.5
20260504151126 21 248 1.6 6.4 0.00 0.00 0.00 57 1003.3
20260504150621 21 238 1.6 6.4 0.00 0.00 0.00 58 1003.4
20260504150139 21 244 1.6 4.8 0.00 0.00 0.00 57 1003.4
20260504141154 18 239 1.6 4.8 0.00 0.00 0.00 65 1003.4
20260504140628 18 286 1.6 3.2 0.00 0.00 0.00 68 1003.4
20260504140126 18 207 1.6 4.8 0.00 0.00 0.00 68 1003.4
20260504130626 15 245 1.6 3.2 0.00 0.00 0.00 73 1003.0
20260504130123 15 298 0.0 3.2 0.00 0.00 0.00 74 1003.0
20260504120138 13 213 1.6 4.8 0.00 0.00 0.00 77 1002.3
20260504110640 10 168 1.6 3.2 0.00 0.00 0.00 85 1002.7
20260504110157 10 168 0.0 3.2 0.00 0.00 0.00 85 1002.8
20260504100131 11 41 0.0 4.8 0.00 0.00 0.00 81 1003.3
20260504090121 12 246 1.6 1.6 0.00 0.00 0.00 82 1003.9